Weather Roundup
Issued by NWS

Home | Current Version | Previous Version | Graphics & Text | Print | Product List | Glossary Off
Versions: 1 2 3 4 5 6 7 8 9 10 11 12 13 14 15 16 17 18 19 20 21 22 23 24 25 26 27 28 29 30 31 32 33 34 35 36 37 38 39 40 41 42 43 44 45 46 47 48 49 50

000
NZUS93 KARX 290810
HRRWXR

CURRENT HOURLY OBSERVATIONS ACROSS
MUCH OF THE UPPER MISSISSIPPI VALLEY
NATIONAL WEATHER SERVICE LA CROSSE WI
200 AM CST THU JAN 29 2015


...SOUTHEAST MINNESOTA...


CITY           SKY/WX    TMP DP  RH WIND       PRES   REMARKS
ROCHESTER      CLOUDY    30  28  92 N23       29.84R FOG     WCI  17
ROCHESTER/MAYO CLOUDY    31  30  97 NW15G24   29.84R WCI  20
WINONA         CLOUDY    32  30  93 N8        29.85R WCI  25
AUSTIN         CLOUDY    30  28  93 NW17G26   29.85R FOG     WCI  18
ALBERT LEA     CLOUDY    32  32 100 N16G25    29.87R FOG     WCI  21
DODGE CENTER   CLOUDY    30  30 100 NW16      29.85R FOG     WCI  19
PRESTON        CLOUDY    30  29  97 N13       29.82R FOG     WCI  20
OWATONNA       CLOUDY    32  30  93 NW17      29.89R FOG     WCI  21
FARIBAULT      CLOUDY    30  30 100 NW9       29.89S FOG     WCI  22
$$

...ELSEWHERE IN MINNESOTA...


CITY           SKY/WX    TMP DP  RH WIND       PRES   REMARKS
MINNEAPOLIS    CLOUDY    31  28  89 NW10      29.90R FOG     WCI  22
INTNL FALLS    CLOUDY    28  22  78 NW14      29.92R WCI  17
DULUTH         FRZ DRZL  29  27  92 NW13      29.81S FOG     WCI  19
RED WING       CLOUDY    32  30  93 NW7       29.87R FOG     WCI  26
REDWOOD FALLS  CLOUDY    33  29  85 NW18G29   29.99R WCI  22
MANKATO        CLOUDY    34  28  80 NW16      29.91S WCI  23
WORTHINGTON    CLOUDY   N/A N/A N/A NW26G36   29.99R
FAIRMONT       CLOUDY    34  28  80 NW20G26   29.92R WCI  22
$$

...SOUTHWEST WISCONSIN...


CITY           SKY/WX    TMP DP  RH WIND       PRES   REMARKS
LA CROSSE      CLOUDY    32  28  85 NW6       29.82R WCI  26
PRAIRIE DU CHI CLOUDY    32  29  90 NW6       29.79R FOG     WCI  26
BOSCOBEL       CLOUDY    34  29  82 N3        29.79R HAZE
LONE ROCK      CLOUDY    32  29  88 N6        29.78R FOG     WCI  26
PLATTEVILLE    CLOUDY    32  30  93 N8        29.74R WCI  25
FORT MC COY      N/A     29  29 100 CALM      29.82S FOG
CAMP DOUGLAS   FRZ RAIN  28  28 100 NW5       29.80R FOG     WCI  23
VIROQUA        CLOUDY    31  31 100 N8        29.78R WCI  23
WIS DELLS      CLOUDY    29  27  91 CALM      29.77S FOG
$$

...ELSEWHERE IN WISCONSIN...


CITY           SKY/WX    TMP DP  RH WIND       PRES   REMARKS
MILWAUKEE      CLOUDY    33  24  69 SE3       29.77F
MADISON        CLOUDY    32  26  78 N5        29.76S WCI  27
GREEN BAY      CLOUDY    31  25  78 CALM      29.80F
EAU CLAIRE     CLOUDY    28  25  88 NW7       29.84R FOG     WCI  21
BLACK RVR FLS  CLOUDY    29  29 100 CALM      29.81S FOG
MEDFORD        FOG       25  24  96 NW3       29.78S VSB 1
WAUSAU         CLOUDY    26  24  92 CALM      29.77S FOG
WIS RAPIDS     CLOUDY    27  24  89 CALM      29.80F FOG
MARSHFIELD     CLOUDY    27  24  89 CALM      29.78S FOG
RICE LAKE      FOG       29  28  97 NW7       29.85S VSB 1   WCI  21
$$

...NORTHEAST IOWA...


CITY           SKY/WX    TMP DP  RH WIND       PRES   REMARKS
DECORAH        CLOUDY    30  30 100 N9        29.79R FOG     WCI  22
MASON CITY     CLOUDY    33  30  88 N22G32    29.87R WCI  21
CHARLES CITY   CLOUDY    32  32 100 N15       29.83R FOG     WCI  22
OELWEIN        CLOUDY    32  32 100 N12       29.79R FOG     WCI  23
$$

...ELSEWHERE IN IOWA...


CITY           SKY/WX    TMP DP  RH WIND       PRES   REMARKS
DES MOINES     CLOUDY    37  31  78 N17G35    29.90R WCI  27
IOWA CITY      MOCLDY    33  31  92 NW8       29.74R WCI  26
FORT DODGE     CLOUDY    34  30  86 NW10G22   29.93R WCI  26
$$

...NORTHERN ILLINOIS...


CITY           SKY/WX    TMP DP  RH WIND       PRES   REMARKS
CHICAGO-OHARE  CLOUDY    35  26  69 S10       29.75F WCI  27
CHICAGO-MIDWAY CLOUDY    38  26  62 S13       29.76F WCI  30
MOLINE         PTCLDY    37  31  78 NW5       29.67R WCI  33
ROCKFORD       CLOUDY    34  27  75 SE6       29.74S WCI  29
PEORIA         MOCLDY    38  32  79 S10       29.69F WCI  31
$$

NOTE: "FAIR" INDICATES FEW OR NO CLOUDS BELOW 12,000 FEET WITH NO
SIGNIFICANT WEATHER AND/OR OBSTRUCTIONS TO VISIBILITY. WIND
SPEEDS ARE IN MILES-PER-HOUR.



USA.gov is the U.S. government's official web portal to all federal, state and local government web resources and services.